156  
AXUS43 KGID 231302  
MISGRI  
 
GID CWA HOURLY WEATHER ROUNDUP  
NATIONAL WEATHER SERVICE HASTINGS NE  
800 AM CDT MON SEP 23 2019  
 
NOTE: "FAIR" INDICATES FEW OR NO CLOUDS BELOW 12,000 FEET WITH NO  
SIGNIFICANT WEATHER AND/OR OBSTRUCTIONS TO VISIBILITY.  
   
..SOUTH CENTRAL NEBRASKA
 
 
 
CITY SKY/WX TMP DP RH WIND PRES REMARKS  
GRAND ISLAND CLEAR 55 50 83 CALM 30.07R  
KEARNEY CLEAR 53 49 86 S3 30.08R  
HASTINGS CLEAR 56 51 84 SW3 30.08R  
ORD FAIR 45 45 100 CALM 30.04R FOG  
YORK CLEAR 54 52 94 CALM 30.07S  
AURORA CLEAR 53 52 95 CALM 30.07S  
LEXINGTON FAIR 51 48 90 CALM 30.06S  
HOLDREGE CLEAR 55 51 87 SW5 30.07R  
HEBRON CLEAR 55 54 97 CALM 30.08R  
   
..NEBRASKA PANHANDLE
 
 
 
CITY SKY/WX TMP DP RH WIND PRES REMARKS  
CHADRON PTCLDY 38 36 92 SW3 30.02S  
ALLIANCE PTCLDY 38 33 82 SW3 30.05R  
SCOTTSBLUFF PTCLDY 39 37 92 CALM 30.06S  
SIDNEY PTCLDY 43 37 79 W7 30.08S  
   
..WESTERN AND NORTH CENTRAL NEBRASKA
 
 
 
CITY SKY/WX TMP DP RH WIND PRES REMARKS  
VALENTINE CLEAR 40 37 89 CALM 30.02S  
AINSWORTH CLEAR 46 46 100 CALM 30.03S  
ONEILL FAIR 51 50 96 CALM 30.04S  
BROKEN BOW FAIR 48 47 96 S3 30.05R  
IMPERIAL CLEAR 48 42 80 W3 30.08R  
NORTH PLATTE CLEAR 47 43 86 NW6 30.07R  
MCCOOK CLEAR 54 48 80 W6 30.08R  
   
..EASTERN NEBRASKA
 
 
 
CITY SKY/WX TMP DP RH WIND PRES REMARKS  
NORFOLK CLEAR 49 48 97 CALM 30.04R  
SO SIOUX CITY FOG 50 50 100 E5 30.05S VSB 1  
TEKAMAH PTCLDY 52 52 100 CALM 30.05R  
COLUMBUS CLEAR 53 52 96 CALM 30.06R  
ALBION CLEAR 47 46 97 CALM 30.05R  
OMAHA EPPLEY PTCLDY 59 58 96 S7 30.06R  
MILLARD CLEAR 57 56 97 SE6 30.07R  
LINCOLN CLEAR 55 53 93 S3 30.08R  
NEBRASKA CITY CLEAR 56 56 100 S7 30.09R  
BEATRICE CLEAR 56 55 96 CALM 30.09R  
FALLS CITY FOG 55 53 93 SE3 30.09R VSB 1/4  
   
..NORTHERN KANSAS
 
 
 
CITY SKY/WX TMP DP RH WIND PRES REMARKS  
GOODLAND PTCLDY 56 49 77 SW18G24 30.10R  
HILL CITY CLEAR 56 51 84 W5 30.09S  
PHILLIPSBURG CLEAR 52 52 100 NE3 30.08R  
OBERLIN FAIR 52 51 97 SW7 30.13R  
SMITH CENTER PTCLDY 54 54 100 CALM 30.09R  
HAYS CLEAR 55 52 89 SW6 30.10R  
RUSSELL CLEAR 57 52 83 S8 30.08R  
CONCORDIA CLEAR 57 54 89 SE3 30.08R  
SALINA CLEAR 53 50 89 CALM 30.09R  
TOPEKA FOG 54 53 97 CALM 30.10R VSB 1/2  
 
CLICK HERE TO GO TO PREVIOUS BULLETINS.

The Nexlab NE Page
The Nexlab KS Page Main Text Page